sat.trackr.live / text

‹ back to catalog

LEMUR-2-VALHALLA

NORAD 58900 · 2024-022B

PAYLOAD ACTIVE UNKNOWN

§ Identity

Operator
Country
US
Launch date
2024-01-31
Launch site
RLLB
Launch vehicle
Mass (kg)
RCS (m²)

Purposes: earth_obs

External: N2YO · Heavens-Above · Gunter

§ Orbital elements

Epoch: 2026-05-25T03:03:36.252288Z

Period
93.57 min
Inclination
97.4137°
Eccentricity
0.0009410
Mean motion
15.38877294 rev/d
Perigee alt
443.0 km
Apogee alt
455.9 km
Semi-major
6,827.6 km
B*
4.1063e-4
RAAN
354.8534°
Arg perigee
186.4011°
Mean anomaly
173.7115°
Rev number
12,872

§ Raw data

LEMUR-2-VALHALLA1 58900U 24022B   26145.12750292  .00015745  00000+0  41063-3 0  99962 58900  97.4137 354.8534 0009410 186.4011 173.7115 15.38877294128721

JSON: /api/v1/satellites/58900 · /tle

For live sub-satellite position, see the globe view (requires WebGL).

§ Visibility from observer

Set your observer location to see the next 7 days of passes ≥ 10°. The values pass through the URL so the page stays shareable.

No JS? Fill the form by hand. The geolocation button needs JavaScript.